Вернуться в каталог

INTELSAT 20

АктивенСвязьGEO
NORAD 38740·PAYLOAD· XX

Запущен Aug 2, 2012 с Guiana Space Centre

Loading…

TLE

СвежийSource: CelesTrak SupGP

Эпоха: Sep 14, 2026, 00:00 UTC

1 38740C 12043A   26257.00000000  .00000066  00000+0  00000+0 0  2571
2 38740   0.0074 166.6308 0001681 351.5799 263.2686  1.00272576    14

Отслеживайте INTELSAT 20 в реальном времени с AllMySat

Download on the App Store